MALLIGYONG-1

Satellite information

Favourite Embed

Satellite Type and Status

PAYLOADIN ORBIT

Key statistics

Satellite MALLIGYONG-1 at a glance.

Uptime

535

Days in orbit

Revolutions

≈ 15.2

Per day

Orbit

SSO

Sun Synchronous Orbit

Inclination

97.4

Latest

Satellite identification and parameters

Extended collection of information and parameters for MALLIGYONG-1.

Object identification

Identified? True

Debris? False

Object name: MALLIGYONG-1

International designator: 2023-179A

Object number (NORAD): 58400

Object ID (CCSDS): 58400

Country: NORTH KOREA (NKOR)

Current information (Y/N): Y

RCS size: MEDIUM

Orbital parameters

Period: 94.593 minutes

Inclination: 97.3615 deg

SMA: 6876.985 km

Apoapsis: 502.934 km

Periapsis: 494.767 km

RAAN: 14.661 deg

Eccentricy: 0.0005938

Argument of periapsis: 123.3774 deg

Mean anomaly: 236.8031 deg

Mean motion: 15.22318903 rev/day

Mean motion (dot): 0.00004164 rev/day2

B* drag term: 0.00018363 1/REarth

Two-line elements (TLE)

Creation date: May 8, 2025, 3:01 a.m.

Reference frame: TEME

Reference center: EARTH

Epoch: May 7, 2025, 10:54 p.m. UTC

TLE line 0: 0 MALLIGYONG-1

TLE line 1: 1 58400U 23179A 25127.95466467 .00004164 00000-0 18363-3 0 9992

TLE line 2: 2 58400 97.3615 14.6610 0005938 123.3774 236.8031 15.22318903 81118

Live tracking on map

Real-time ground track for satellite MALLIGYONG-1.

In-orbit conjunctions

There are no conjunctions computed for MALLIGYONG-1, at the moment. Check back to stay up to date, as we update our databases every day.

Go to all conjunctions

Associated space launch

Malligyong-1c (meaning "Telescope-1") is the third attempt by North Korea to launch a satellite officially declared to be for military reconnaissance purposes, and the first successful one. It became the third North Korean satellite to reach orbit.

MALLIGYONG-1 was lifted into orbit during the mission ‘Chollima-1 | Malligyong-1c’, on board a Chollima-1 space rocket.

The launch took place on Nov. 21, 2023, 1:42 p.m. from Malligyong-1 Pad.

For more information about the launch, click the button.

Launch to space Chollima-1 | Malligyong-1c
Chollima-1 | Malligyong-1c

Agency: National Aerospace Development Administration

Status: Launch Successful

Launch date: Nov. 21, 2023, 1:42 p.m. UTC

Rocket: Chollima-1

Launch pad: Malligyong-1 Pad

Location: Sohae Satellite Launching Station, Cholsan County, North Pyongan Province, Democratic People's Republic of Korea

...

Latest news about this satellite

News about space launch
North Korea Launches First Domestic Spysat

2023 has been a remarkable time for international spaceflight, but spaceflight does not exist in a vacuum beyond geopolitics, and while some achievements can be hailed on the international stage, others are the grounds for concern and suspicion. This fact...

News about space launch
Rocket Report: Beyond Gravity to study fairing reuse; North Korea launches satellite

"I conclude the objects are the spy satellite and the rocket upper stage."


Newsletter sign-up

Weekly statistics, charts and insights to help you stay on top of the space industry.